C2305 KCRP-KCRP

Flight info

Callsign C2305
Flight time 1h 24m
Altitude 5000
Route VFR OPR
Aircraft CN35/M-VGD/C

Departure

Time 2026-04-21 23:28
Airport Corpus Christi International Airport (KCRP)

Arrival

Time 2026-04-22 00:52
Airport Corpus Christi International Airport (KCRP)
Time Latitude Longitude Altitude Speed Heading
2026-04-21 23:15 27.78061 -97.50981 51 ft 0 kts 136°
2026-04-21 23:24 27.78061 -97.50980 53 ft 2 kts 136°
2026-04-21 23:24 27.78016 -97.50954 52 ft 13 kts 156°
2026-04-21 23:25 27.77956 -97.50922 49 ft 15 kts 167°
2026-04-21 23:25 27.77852 -97.51007 47 ft 26 kts 225°
2026-04-21 23:25 27.77767 -97.51130 50 ft 16 kts 266°
2026-04-21 23:25 27.77728 -97.51238 48 ft 0 kts 225°
2026-04-21 23:27 27.77724 -97.51244 48 ft 5 kts 225°
2026-04-21 23:27 27.77658 -97.51279 47 ft 15 kts 162°
2026-04-21 23:27 27.77433 -97.51037 50 ft 87 kts 136°
2026-04-21 23:28 27.76850 -97.50414 84 ft 136 kts 134°
2026-04-21 23:28 27.76123 -97.49583 162 ft 169 kts 135°
2026-04-21 23:28 27.75219 -97.48511 580 ft 204 kts 133°
2026-04-21 23:28 27.74218 -97.47251 990 ft 231 kts 131°
2026-04-21 23:29 27.73076 -97.45806 1064 ft 258 kts 132°
2026-04-21 23:29 27.71849 -97.44278 1333 ft 267 kts 132°
2026-04-21 23:29 27.70622 -97.42719 1574 ft 261 kts 131°
2026-04-21 23:29 27.69443 -97.41202 1820 ft 256 kts 132°
2026-04-21 23:30 27.68374 -97.39602 2044 ft 256 kts 120°
2026-04-21 23:30 27.67963 -97.37649 2277 ft 262 kts 92°
2026-04-21 23:30 27.68456 -97.35661 2481 ft 269 kts 64°
2026-04-21 23:30 27.69641 -97.34001 2739 ft 274 kts 50°
2026-04-21 23:31 27.70905 -97.32392 2994 ft 272 kts 55°
2026-04-21 23:31 27.71845 -97.30556 3228 ft 270 kts 70°
2026-04-21 23:31 27.72534 -97.28577 3475 ft 271 kts 72°
2026-04-21 23:31 27.73286 -97.26650 3714 ft 273 kts 66°
2026-04-21 23:32 27.74207 -97.24739 3959 ft 274 kts 64°
2026-04-21 23:32 27.75069 -97.22818 4189 ft 274 kts 67°
2026-04-21 23:32 27.75863 -97.20870 4440 ft 274 kts 68°
2026-04-21 23:32 27.76697 -97.18927 4723 ft 276 kts 66°
2026-04-21 23:33 27.77561 -97.16990 4980 ft 276 kts 65°
2026-04-21 23:33 27.78423 -97.15028 5032 ft 283 kts 67°
2026-04-21 23:33 27.79267 -97.12996 5035 ft 288 kts 67°
2026-04-21 23:33 27.80122 -97.10961 5034 ft 294 kts 66°
2026-04-21 23:34 27.81032 -97.08884 5040 ft 296 kts 65°
2026-04-21 23:34 27.81952 -97.06794 5036 ft 298 kts 66°
2026-04-21 23:34 27.82847 -97.04677 5037 ft 299 kts 67°
2026-04-21 23:34 27.83738 -97.02553 5038 ft 300 kts 66°
2026-04-21 23:35 27.84668 -97.00407 5033 ft 301 kts 65°
2026-04-21 23:35 27.85582 -96.98310 5033 ft 301 kts 66°
2026-04-21 23:35 27.86492 -96.96181 5028 ft 301 kts 67°
2026-04-21 23:35 27.87380 -96.94047 5029 ft 300 kts 66°
2026-04-21 23:36 27.88291 -96.91919 5027 ft 301 kts 66°
2026-04-21 23:36 27.89218 -96.89807 5028 ft 297 kts 66°
2026-04-21 23:36 27.90108 -96.87718 5019 ft 293 kts 67°
2026-04-21 23:36 27.90975 -96.85640 5013 ft 291 kts 67°
2026-04-21 23:37 27.91852 -96.83584 4983 ft 290 kts 66°
2026-04-21 23:37 27.92741 -96.81537 4987 ft 290 kts 66°
2026-04-21 23:37 27.93617 -96.79479 4992 ft 290 kts 66°
2026-04-21 23:37 27.94482 -96.77425 4990 ft 289 kts 66°
2026-04-21 23:38 27.95351 -96.75379 4991 ft 289 kts 66°
2026-04-21 23:38 27.96232 -96.73327 4990 ft 290 kts 66°
2026-04-21 23:38 27.97110 -96.71273 4990 ft 290 kts 67°
2026-04-21 23:38 27.97975 -96.69216 4990 ft 290 kts 67°
2026-04-21 23:39 27.98849 -96.67156 4993 ft 290 kts 66°
2026-04-21 23:39 27.99727 -96.65094 4992 ft 291 kts 66°
2026-04-21 23:39 28.00593 -96.63062 5000 ft 291 kts 66°
2026-04-21 23:39 28.01471 -96.60991 5000 ft 292 kts 66°
2026-04-21 23:40 28.02346 -96.58918 5007 ft 292 kts 67°
2026-04-21 23:40 28.03223 -96.56845 4999 ft 292 kts 66°
2026-04-21 23:40 28.04099 -96.54778 4998 ft 292 kts 66°
2026-04-21 23:40 28.04979 -96.52714 5006 ft 291 kts 66°
2026-04-21 23:41 28.05852 -96.50644 5004 ft 291 kts 67°
2026-04-21 23:41 28.06722 -96.48577 4998 ft 291 kts 67°
2026-04-21 23:41 28.07593 -96.46516 4984 ft 291 kts 66°
2026-04-21 23:41 28.08466 -96.44456 4996 ft 290 kts 66°
2026-04-21 23:42 28.09340 -96.42392 5001 ft 291 kts 66°
2026-04-21 23:42 28.10210 -96.40325 5001 ft 291 kts 66°
2026-04-21 23:42 28.11079 -96.38258 5001 ft 291 kts 66°
2026-04-21 23:42 28.11951 -96.36192 5002 ft 291 kts 66°
2026-04-21 23:43 28.12825 -96.34123 5004 ft 291 kts 66°
2026-04-21 23:43 28.13688 -96.32077 5003 ft 291 kts 66°
2026-04-21 23:43 28.14437 -96.29962 4991 ft 288 kts 78°
2026-04-21 23:43 28.14526 -96.27739 5005 ft 281 kts 99°
2026-04-21 23:44 28.14259 -96.25547 5011 ft 280 kts 101°
2026-04-21 23:44 28.13991 -96.23464 4988 ft 257 kts 101°
2026-04-21 23:44 28.13768 -96.21500 4997 ft 245 kts 100°
2026-04-21 23:44 28.13575 -96.19631 4988 ft 231 kts 100°
2026-04-21 23:45 28.13413 -96.17909 4999 ft 209 kts 99°
2026-04-21 23:45 28.13178 -96.14955 4991 ft 173 kts 99°
2026-04-21 23:45 28.13098 -96.13633 4996 ft 164 kts 98°
2026-04-21 23:46 28.13036 -96.12361 5003 ft 160 kts 97°
2026-04-21 23:46 28.12990 -96.11105 5003 ft 158 kts 97°
2026-04-21 23:46 28.12958 -96.09863 4999 ft 157 kts 96°
2026-04-21 23:46 28.12940 -96.08624 5010 ft 159 kts 95°
2026-04-21 23:47 28.12934 -96.07361 5020 ft 161 kts 95°
2026-04-21 23:47 28.12939 -96.06086 5019 ft 163 kts 94°
2026-04-21 23:47 28.12955 -96.04819 5023 ft 163 kts 94°
2026-04-21 23:47 28.12978 -96.03529 5018 ft 164 kts 93°
2026-04-21 23:48 28.13013 -96.02231 5016 ft 165 kts 92°
2026-04-21 23:48 28.13064 -96.00929 5018 ft 165 kts 92°
2026-04-21 23:48 28.13122 -95.99628 5017 ft 165 kts 91°
2026-04-21 23:48 28.13192 -95.98331 5018 ft 165 kts 91°
2026-04-21 23:49 28.13274 -95.97028 5017 ft 165 kts 90°
2026-04-21 23:49 28.13367 -95.95730 5019 ft 165 kts 89°
2026-04-21 23:49 28.13471 -95.94435 5019 ft 165 kts 89°
2026-04-21 23:49 28.13574 -95.93134 5012 ft 165 kts 91°
2026-04-21 23:50 28.13255 -95.91949 4983 ft 155 kts 132°
2026-04-21 23:50 28.12365 -95.91413 4979 ft 145 kts 177°
2026-04-21 23:50 28.11464 -95.91804 5011 ft 143 kts 218°
2026-04-21 23:50 28.10746 -95.92596 5012 ft 146 kts 224°
2026-04-21 23:51 28.10346 -95.93664 5000 ft 152 kts 258°
2026-04-21 23:51 28.10578 -95.94843 4977 ft 161 kts 298°
2026-04-21 23:51 28.11496 -95.95566 4979 ft 168 kts 343°
2026-04-21 23:51 28.12663 -95.95550 5026 ft 169 kts
2026-04-21 23:52 28.13842 -95.95429 5024 ft 171 kts
2026-04-21 23:52 28.15041 -95.95399 5021 ft 173 kts 358°
2026-04-21 23:52 28.16247 -95.95406 5023 ft 173 kts 359°
2026-04-21 23:52 28.17456 -95.95398 5016 ft 174 kts 358°
2026-04-21 23:53 28.18672 -95.95397 5016 ft 175 kts 358°
2026-04-21 23:53 28.19889 -95.95397 5015 ft 175 kts 358°
2026-04-21 23:53 28.21100 -95.95400 5016 ft 174 kts 358°
2026-04-21 23:53 28.22296 -95.95520 4972 ft 172 kts 339°
2026-04-21 23:54 28.23322 -95.96157 5015 ft 168 kts 327°
2026-04-21 23:54 28.24470 -95.96411 4979 ft 172 kts
2026-04-21 23:54 28.25574 -95.95931 5024 ft 170 kts 24°
2026-04-21 23:54 28.26731 -95.95757 4991 ft 168 kts 345°
2026-04-21 23:55 28.27632 -95.96479 4991 ft 156 kts 295°
2026-04-21 23:55 28.27741 -95.97624 4997 ft 146 kts 247°
2026-04-21 23:55 28.27160 -95.98523 5030 ft 142 kts 225°
2026-04-21 23:55 28.26523 -95.99394 5020 ft 145 kts 227°
2026-04-21 23:56 28.25964 -96.00354 4992 ft 149 kts 243°
2026-04-21 23:56 28.25703 -96.01493 4985 ft 153 kts 255°
2026-04-21 23:56 28.25489 -96.02732 4745 ft 166 kts 254°
2026-04-21 23:56 28.25257 -96.04035 4505 ft 171 kts 255°
2026-04-21 23:57 28.25030 -96.05383 4263 ft 177 kts 256°
2026-04-21 23:57 28.24801 -96.06768 4020 ft 179 kts 255°
2026-04-21 23:57 28.24564 -96.08165 3778 ft 182 kts 254°
2026-04-21 23:57 28.24325 -96.09579 3541 ft 183 kts 254°
2026-04-21 23:58 28.24082 -96.11005 3295 ft 186 kts 254°
2026-04-21 23:58 28.23842 -96.12440 3053 ft 185 kts 253°
2026-04-21 23:58 28.23599 -96.13877 2800 ft 186 kts 253°
2026-04-21 23:58 28.23354 -96.15297 2554 ft 188 kts 253°
2026-04-21 23:59 28.23107 -96.16757 2309 ft 189 kts 253°
2026-04-21 23:59 28.22863 -96.18213 2070 ft 188 kts 253°
2026-04-21 23:59 28.22615 -96.19672 1827 ft 189 kts 253°
2026-04-21 23:59 28.22363 -96.21146 1587 ft 192 kts 253°
2026-04-22 00:00 28.22106 -96.22634 1334 ft 195 kts 254°
2026-04-22 00:00 28.21855 -96.24138 1090 ft 192 kts 255°
2026-04-22 00:00 28.21603 -96.25611 1000 ft 187 kts 254°
2026-04-22 00:00 28.21361 -96.27033 997 ft 181 kts 255°
2026-04-22 00:01 28.21125 -96.28415 1000 ft 177 kts 254°
2026-04-22 00:01 28.20896 -96.29775 997 ft 174 kts 253°
2026-04-22 00:01 28.20661 -96.31110 998 ft 172 kts 255°
2026-04-22 00:01 28.20434 -96.32439 997 ft 171 kts 256°
2026-04-22 00:02 28.20217 -96.33759 999 ft 169 kts 253°
2026-04-22 00:02 28.19988 -96.35063 998 ft 169 kts 253°
2026-04-22 00:02 28.19782 -96.36241 998 ft 170 kts 255°
2026-04-22 00:02 28.19559 -96.37562 998 ft 171 kts 254°
2026-04-22 00:03 28.19335 -96.38880 1006 ft 170 kts 254°
2026-04-22 00:03 28.19111 -96.40194 1001 ft 169 kts 253°
2026-04-22 00:03 28.18885 -96.41502 998 ft 168 kts 253°
2026-04-22 00:03 28.18659 -96.42793 995 ft 166 kts 254°
2026-04-22 00:04 28.18446 -96.44085 1003 ft 168 kts 252°
2026-04-22 00:04 28.18221 -96.45384 1003 ft 168 kts 251°
2026-04-22 00:04 28.17990 -96.46670 1000 ft 166 kts 254°
2026-04-22 00:04 28.17780 -96.47947 1003 ft 164 kts 252°
2026-04-22 00:05 28.17557 -96.49229 1000 ft 166 kts 252°
2026-04-22 00:05 28.17349 -96.50404 998 ft 165 kts 253°
2026-04-22 00:05 28.17134 -96.51683 1009 ft 165 kts 253°
2026-04-22 00:05 28.16912 -96.52976 936 ft 170 kts 251°
2026-04-22 00:06 28.16674 -96.54315 812 ft 175 kts 252°
2026-04-22 00:06 28.16429 -96.55706 575 ft 182 kts 255°
2026-04-22 00:06 28.16201 -96.57086 526 ft 175 kts 255°
2026-04-22 00:06 28.15979 -96.58415 582 ft 168 kts 254°
2026-04-22 00:07 28.15755 -96.59679 652 ft 162 kts 253°
2026-04-22 00:07 28.15530 -96.60944 715 ft 165 kts 253°
2026-04-22 00:07 28.15316 -96.62208 789 ft 163 kts 253°
2026-04-22 00:07 28.15096 -96.63467 874 ft 163 kts 253°
2026-04-22 00:08 28.14875 -96.64732 937 ft 163 kts 253°
2026-04-22 00:08 28.14570 -96.65957 975 ft 159 kts 237°
2026-04-22 00:08 28.13838 -96.66862 998 ft 156 kts 211°
2026-04-22 00:08 28.12981 -96.67621 997 ft 156 kts 214°
2026-04-22 00:09 28.12154 -96.68425 1009 ft 158 kts 217°
2026-04-22 00:09 28.11319 -96.69246 1000 ft 160 kts 214°
2026-04-22 00:09 28.10469 -96.70051 997 ft 159 kts 213°
2026-04-22 00:09 28.09635 -96.70836 998 ft 157 kts 214°
2026-04-22 00:10 28.08805 -96.71640 998 ft 157 kts 212°
2026-04-22 00:10 28.07972 -96.72420 991 ft 153 kts 214°
2026-04-22 00:10 28.07151 -96.73208 997 ft 156 kts 213°
2026-04-22 00:10 28.06329 -96.73987 991 ft 153 kts 214°
2026-04-22 00:11 28.05517 -96.74766 989 ft 154 kts 213°
2026-04-22 00:11 28.04702 -96.75538 990 ft 153 kts 212°
2026-04-22 00:11 28.03885 -96.76314 993 ft 155 kts 212°
2026-04-22 00:11 28.02927 -96.76770 920 ft 147 kts 178°
2026-04-22 00:12 28.02031 -96.76302 679 ft 151 kts 130°
2026-04-22 00:12 28.01797 -96.75154 644 ft 157 kts 86°
2026-04-22 00:12 28.02371 -96.74074 626 ft 166 kts 50°
2026-04-22 00:12 28.03336 -96.73350 590 ft 168 kts 33°
2026-04-22 00:13 28.04360 -96.72714 678 ft 163 kts 36°
2026-04-22 00:13 28.05330 -96.72141 834 ft 158 kts 32°
2026-04-22 00:13 28.06314 -96.71562 793 ft 163 kts 32°
2026-04-22 00:13 28.07360 -96.70988 738 ft 167 kts 30°
2026-04-22 00:14 28.08292 -96.70254 744 ft 160 kts 46°
2026-04-22 00:14 28.09125 -96.69486 916 ft 153 kts 43°
2026-04-22 00:14 28.09991 -96.68739 933 ft 160 kts 41°
2026-04-22 00:14 28.11032 -96.67935 880 ft 212 kts 39°
2026-04-22 00:15 28.12307 -96.66735 771 ft 259 kts 46°
2026-04-22 00:15 28.13576 -96.65231 985 ft 270 kts 52°
2026-04-22 00:15 28.14874 -96.63655 1049 ft 279 kts 47°
2026-04-22 00:15 28.16245 -96.62059 1115 ft 284 kts 51°
2026-04-22 00:16 28.17568 -96.60435 1461 ft 276 kts 52°
2026-04-22 00:16 28.18875 -96.58803 1475 ft 285 kts 53°
2026-04-22 00:16 28.19738 -96.57668 1389 ft 289 kts 54°
2026-04-22 00:16 28.20973 -96.55858 1277 ft 291 kts 58°
2026-04-22 00:17 28.22504 -96.53309 1119 ft 293 kts 62°
2026-04-22 00:17 28.23213 -96.52001 1030 ft 295 kts 62°
2026-04-22 00:17 28.24260 -96.50017 1009 ft 292 kts 63°
2026-04-22 00:17 28.25300 -96.48049 1012 ft 289 kts 62°
2026-04-22 00:18 28.26294 -96.46072 994 ft 288 kts 65°
2026-04-22 00:18 28.27179 -96.44044 998 ft 286 kts 68°
2026-04-22 00:18 28.27967 -96.41966 1007 ft 286 kts 70°
2026-04-22 00:18 28.28692 -96.39855 1011 ft 288 kts 71°
2026-04-22 00:19 28.29412 -96.37746 1014 ft 286 kts 72°
2026-04-22 00:19 28.30138 -96.35641 1007 ft 286 kts 71°
2026-04-22 00:19 28.30859 -96.33537 1005 ft 285 kts 72°
2026-04-22 00:19 28.31522 -96.31430 1004 ft 283 kts 76°
2026-04-22 00:20 28.32084 -96.29285 1002 ft 284 kts 77°
2026-04-22 00:20 28.32616 -96.27127 1006 ft 284 kts 77°
2026-04-22 00:20 28.33145 -96.24970 1005 ft 284 kts 78°
2026-04-22 00:20 28.33689 -96.22839 1015 ft 285 kts 77°
2026-04-22 00:21 28.34209 -96.20789 1006 ft 246 kts 78°
2026-04-22 00:21 28.34575 -96.19017 1046 ft 214 kts 90°
2026-04-22 00:21 28.34280 -96.17589 1357 ft 172 kts 125°
2026-04-22 00:21 28.33366 -96.16797 1132 ft 172 kts 161°
2026-04-22 00:22 28.32269 -96.16985 1210 ft 158 kts 204°
2026-04-22 00:22 28.31567 -96.17966 1062 ft 168 kts 241°
2026-04-22 00:22 28.31470 -96.19305 917 ft 174 kts 274°
2026-04-22 00:22 28.31710 -96.20619 881 ft 169 kts 279°
2026-04-22 00:23 28.31972 -96.21888 910 ft 161 kts 277°
2026-04-22 00:23 28.32176 -96.23124 920 ft 160 kts 272°
2026-04-22 00:23 28.32270 -96.24411 843 ft 160 kts 265°
2026-04-22 00:23 28.32234 -96.25634 954 ft 155 kts 260°
2026-04-22 00:24 28.32081 -96.26870 836 ft 161 kts 255°
2026-04-22 00:24 28.31801 -96.28095 796 ft 158 kts 245°
2026-04-22 00:24 28.31446 -96.29240 836 ft 151 kts 241°
2026-04-22 00:24 28.30976 -96.30307 756 ft 153 kts 234°
2026-04-22 00:25 28.30367 -96.31303 694 ft 153 kts 226°
2026-04-22 00:25 28.29657 -96.32203 665 ft 152 kts 217°
2026-04-22 00:25 28.28886 -96.33002 640 ft 147 kts 212°
2026-04-22 00:25 28.28068 -96.33642 650 ft 139 kts 201°
2026-04-22 00:26 28.27300 -96.33391 632 ft 119 kts 124°
2026-04-22 00:26 28.27439 -96.32464 465 ft 137 kts 56°
2026-04-22 00:26 28.28135 -96.31661 321 ft 148 kts 48°
2026-04-22 00:26 28.28921 -96.30938 409 ft 132 kts 46°
2026-04-22 00:27 28.29621 -96.30361 667 ft 119 kts 42°
2026-04-22 00:27 28.30303 -96.29860 730 ft 128 kts 40°
2026-04-22 00:27 28.31082 -96.29301 673 ft 135 kts 38°
2026-04-22 00:27 28.31854 -96.28734 723 ft 137 kts 38°
2026-04-22 00:28 28.32992 -96.28262 892 ft 207 kts
2026-04-22 00:28 28.34462 -96.28860 1231 ft 251 kts 323°
2026-04-22 00:28 28.35615 -96.30483 1380 ft 280 kts 296°
2026-04-22 00:28 28.36412 -96.32559 1756 ft 290 kts 289°
2026-04-22 00:29 28.36930 -96.34754 2133 ft 276 kts 265°
2026-04-22 00:29 28.36433 -96.36534 2379 ft 191 kts 240°
2026-04-22 00:29 28.35865 -96.37786 1838 ft 178 kts 226°
2026-04-22 00:29 28.35137 -96.38880 1851 ft 178 kts 231°
2026-04-22 00:30 28.34507 -96.40132 1942 ft 172 kts 236°
2026-04-22 00:30 28.34011 -96.41428 1921 ft 174 kts 237°
2026-04-22 00:30 28.33446 -96.42708 1995 ft 189 kts 236°
2026-04-22 00:30 28.32820 -96.44121 1969 ft 210 kts 237°
2026-04-22 00:31 28.32172 -96.45605 1984 ft 194 kts 240°
2026-04-22 00:31 28.31641 -96.47125 1934 ft 231 kts 245°
2026-04-22 00:31 28.31051 -96.48567 2099 ft 175 kts 237°
2026-04-22 00:31 28.30386 -96.49994 1873 ft 217 kts 236°
2026-04-22 00:32 28.29603 -96.51481 1982 ft 209 kts 233°
2026-04-22 00:32 28.28850 -96.52897 1980 ft 227 kts 233°
2026-04-22 00:32 28.28113 -96.54293 1831 ft 200 kts 233°
2026-04-22 00:32 28.27386 -96.55756 1971 ft 208 kts 237°
2026-04-22 00:33 28.26686 -96.57262 1884 ft 220 kts 235°
2026-04-22 00:33 28.26027 -96.58866 1970 ft 243 kts 243°
2026-04-22 00:33 28.25181 -96.60688 1961 ft 271 kts 236°
2026-04-22 00:33 28.24272 -96.62495 1960 ft 269 kts 236°
2026-04-22 00:34 28.23386 -96.64325 1923 ft 254 kts 235°
2026-04-22 00:34 28.22414 -96.66121 2000 ft 270 kts 234°
2026-04-22 00:34 28.21414 -96.67824 1950 ft 247 kts 224°
2026-04-22 00:34 28.20124 -96.69207 1988 ft 265 kts 216°
2026-04-22 00:35 28.18849 -96.70587 1934 ft 249 kts 220°
2026-04-22 00:35 28.17509 -96.71983 1986 ft 269 kts 219°
2026-04-22 00:35 28.16253 -96.73412 1971 ft 266 kts 223°
2026-04-22 00:35 28.15042 -96.74862 1948 ft 246 kts 222°
2026-04-22 00:36 28.13845 -96.76426 2001 ft 261 kts 228°
2026-04-22 00:36 28.12797 -96.78010 1999 ft 253 kts 231°
2026-04-22 00:36 28.11757 -96.79641 2211 ft 254 kts 229°
2026-04-22 00:36 28.10767 -96.81256 2700 ft 247 kts 230°
2026-04-22 00:37 28.09764 -96.82866 2920 ft 255 kts 230°
2026-04-22 00:37 28.08650 -96.84553 3046 ft 277 kts 231°
2026-04-22 00:37 28.07568 -96.86218 3001 ft 252 kts 230°
2026-04-22 00:37 28.06461 -96.87908 3006 ft 274 kts 229°
2026-04-22 00:38 28.05429 -96.89494 2966 ft 252 kts 232°
2026-04-22 00:38 28.04760 -96.91419 2968 ft 275 kts 254°
2026-04-22 00:38 28.04358 -96.93444 2969 ft 251 kts 253°
2026-04-22 00:38 28.03968 -96.95407 2916 ft 263 kts 255°
2026-04-22 00:39 28.03553 -96.97499 2949 ft 278 kts 253°
2026-04-22 00:39 28.03129 -96.99597 2975 ft 261 kts 253°
2026-04-22 00:39 28.02736 -97.01632 2975 ft 280 kts 255°
2026-04-22 00:39 28.02314 -97.03717 2990 ft 250 kts 254°
2026-04-22 00:40 28.01929 -97.05654 2960 ft 256 kts 253°
2026-04-22 00:40 28.01534 -97.07650 2960 ft 267 kts 254°
2026-04-22 00:40 28.01114 -97.09749 2997 ft 276 kts 254°
2026-04-22 00:40 28.00703 -97.11837 2960 ft 269 kts 253°
2026-04-22 00:41 28.00278 -97.13907 3011 ft 270 kts 254°
2026-04-22 00:41 27.99875 -97.15940 2956 ft 242 kts 254°
2026-04-22 00:41 27.99534 -97.17744 2872 ft 244 kts 253°
2026-04-22 00:41 27.99155 -97.19800 2554 ft 287 kts 255°
2026-04-22 00:42 27.98709 -97.22036 2138 ft 271 kts 253°
2026-04-22 00:42 27.98343 -97.23986 1942 ft 262 kts 254°
2026-04-22 00:42 27.97935 -97.26105 1944 ft 275 kts 254°
2026-04-22 00:42 27.97564 -97.28127 1921 ft 237 kts 254°
2026-04-22 00:43 27.97241 -97.29924 1927 ft 245 kts 254°
2026-04-22 00:43 27.96900 -97.31867 1973 ft 243 kts 252°
2026-04-22 00:43 27.96574 -97.33599 1958 ft 211 kts 257°
2026-04-22 00:43 27.96434 -97.35190 1990 ft 198 kts 262°
2026-04-22 00:44 27.96357 -97.36812 1937 ft 219 kts 262°
2026-04-22 00:44 27.96230 -97.38641 1898 ft 250 kts 262°
2026-04-22 00:44 27.96122 -97.40586 1963 ft 220 kts 262°
2026-04-22 00:44 27.96036 -97.42280 1956 ft 218 kts 263°
2026-04-22 00:45 27.95947 -97.43994 1927 ft 208 kts 262°
2026-04-22 00:45 27.95866 -97.45669 1954 ft 231 kts 262°
2026-04-22 00:45 27.95768 -97.47475 1965 ft 209 kts 262°
2026-04-22 00:45 27.95698 -97.49139 1948 ft 226 kts 263°
2026-04-22 00:46 27.95523 -97.50832 1944 ft 202 kts 245°
2026-04-22 00:46 27.94908 -97.52012 1936 ft 173 kts 223°
2026-04-22 00:46 27.94091 -97.53106 1974 ft 189 kts 225°
2026-04-22 00:46 27.93378 -97.54182 1953 ft 170 kts 226°
2026-04-22 00:47 27.92627 -97.55268 1986 ft 160 kts 224°
2026-04-22 00:47 27.91917 -97.56267 1958 ft 178 kts 226°
2026-04-22 00:47 27.91140 -97.57405 2001 ft 174 kts 228°
2026-04-22 00:47 27.90446 -97.58421 1969 ft 157 kts 222°
2026-04-22 00:48 27.89664 -97.59384 2052 ft 162 kts 221°
2026-04-22 00:48 27.88832 -97.60197 2076 ft 156 kts 206°
2026-04-22 00:48 27.87864 -97.60750 2046 ft 151 kts 198°
2026-04-22 00:48 27.86854 -97.60993 1946 ft 154 kts 173°
2026-04-22 00:49 27.85851 -97.60494 1897 ft 152 kts 140°
2026-04-22 00:49 27.85153 -97.59733 1800 ft 129 kts 135°
2026-04-22 00:49 27.84524 -97.59002 1656 ft 136 kts 134°
2026-04-22 00:49 27.83845 -97.58197 1487 ft 148 kts 133°
2026-04-22 00:50 27.83120 -97.57335 1332 ft 149 kts 132°
2026-04-22 00:50 27.82397 -97.56512 1157 ft 147 kts 135°
2026-04-22 00:50 27.81740 -97.55775 988 ft 124 kts 133°
2026-04-22 00:50 27.81109 -97.55071 850 ft 134 kts 135°
2026-04-22 00:51 27.80447 -97.54383 741 ft 129 kts 137°
2026-04-22 00:51 27.79846 -97.53736 594 ft 116 kts 135°
2026-04-22 00:51 27.79265 -97.53073 497 ft 120 kts 129°
2026-04-22 00:51 27.78700 -97.52418 373 ft 116 kts 134°
2026-04-22 00:52 27.78142 -97.51813 151 ft 102 kts 136°
2026-04-22 00:52 27.77639 -97.51270 50 ft 93 kts 136°
2026-04-22 00:52 27.77275 -97.50861 47 ft 64 kts 135°
2026-04-22 00:52 27.77005 -97.50564 45 ft 36 kts 135°
2026-04-22 00:53 27.76870 -97.50323 44 ft 38 kts 106°
2026-04-22 00:53 27.76845 -97.50219 46 ft 0 kts 104°
2026-04-22 00:53 27.76845 -97.50191 48 ft 8 kts 73°
2026-04-22 00:53 27.76905 -97.50206 47 ft 17 kts 315°
2026-04-22 00:54 27.77005 -97.50318 48 ft 8 kts 315°
2026-04-22 00:54 27.77071 -97.50391 45 ft 16 kts 316°
2026-04-22 00:54 27.77138 -97.50463 48 ft 11 kts 316°
2026-04-22 00:54 27.77192 -97.50521 49 ft 7 kts 316°
2026-04-22 00:55 27.77219 -97.50550 50 ft 11 kts 316°
2026-04-22 00:55 27.77305 -97.50643 51 ft 24 kts 316°
2026-04-22 00:55 27.77489 -97.50846 49 ft 29 kts 315°
2026-04-22 00:56 27.77608 -97.50978 50 ft 17 kts 316°
2026-04-22 00:56 27.77700 -97.51077 51 ft 10 kts 316°
2026-04-22 00:56 27.77787 -97.51089 50 ft 20 kts 45°
2026-04-22 00:56 27.77869 -97.50991 50 ft 14 kts 47°
2026-04-22 00:57 27.77897 -97.50956 50 ft 9 kts 47°
2026-04-22 00:57 27.77949 -97.50921 50 ft 6 kts 354°
2026-04-22 00:57 27.77978 -97.50940 50 ft 0 kts 320°
2026-04-22 00:58 27.78001 -97.50941 47 ft 7 kts
2026-04-22 00:58 27.78024 -97.50940 51 ft 2 kts 354°
2026-04-22 00:59 27.78077 -97.50970 52 ft 12 kts 323°
2026-04-22 00:59 27.78088 -97.51002 50 ft 2 kts 232°
2026-04-22 00:59 27.78087 -97.51003 47 ft 0 kts 229°